Time,TemperatureF,DewpointF,PressureIn,WindDirection,WindDirectionDegrees,WindSpeedMPH,WindSpeedGustMPH,Humidity,HourlyPrecipIn,Conditions,Clouds,dailyrainin,SoftwareType,DateUTC
2013-04-24 00:02:00,50.0,31.0,30.04,North,360,5.0,12.0,47,0.00,,,0.00,,2013-04-24 05:02:00,
2013-04-24 00:12:00,50.0,31.0,30.04,North,360,5.0,12.0,47,0.00,,,0.00,,2013-04-24 05:12:00,
2013-04-24 00:22:00,49.0,32.0,30.04,North,349,2.0,11.0,51,0.00,,,0.00,,2013-04-24 05:22:00,
2013-04-24 00:32:00,49.0,32.0,30.04,North,349,2.0,11.0,51,0.00,,,0.00,,2013-04-24 05:32:00,
2013-04-24 00:42:00,49.0,32.0,30.04,North,349,2.0,11.0,51,0.00,,,0.00,,2013-04-24 05:42:00,
2013-04-24 00:52:00,47.0,33.0,30.06,North,360,1.0,5.0,57,0.00,,,0.00,,2013-04-24 05:52:00,
2013-04-24 01:02:00,47.0,33.0,30.06,North,360,1.0,5.0,57,0.00,,,0.00,,2013-04-24 06:02:00,
2013-04-24 01:12:00,47.0,33.0,30.06,North,360,1.0,5.0,57,0.00,,,0.00,,2013-04-24 06:12:00,
2013-04-24 01:21:00,45.0,32.0,30.07,ESE,110,0.0,14.0,59,0.00,,,0.00,,2013-04-24 06:21:00,
2013-04-24 01:32:00,45.0,32.0,30.07,ESE,110,0.0,14.0,59,0.00,,,0.00,,2013-04-24 06:32:00,
2013-04-24 01:42:00,45.0,32.0,30.07,ESE,110,0.0,14.0,59,0.00,,,0.00,,2013-04-24 06:42:00,
2013-04-24 01:52:00,43.0,31.0,30.07,SE,127,0.0,8.0,62,0.00,,,0.00,,2013-04-24 06:52:00,
2013-04-24 02:02:00,43.0,31.0,30.07,SE,127,0.0,8.0,62,0.00,,,0.00,,2013-04-24 07:02:00,
2013-04-24 02:11:00,43.0,31.0,30.07,SE,127,0.0,8.0,62,0.00,,,0.00,,2013-04-24 07:11:00,
2013-04-24 02:22:00,41.0,30.0,30.10,NE,52,3.0,10.0,65,0.00,,,0.00,,2013-04-24 07:22:00,
2013-04-24 02:32:00,41.0,30.0,30.10,NE,52,3.0,10.0,65,0.00,,,0.00,,2013-04-24 07:32:00,
2013-04-24 02:42:00,41.0,30.0,30.10,NE,52,3.0,10.0,65,0.00,,,0.00,,2013-04-24 07:42:00,
2013-04-24 02:52:00,40.0,30.0,30.11,NNE,31,2.0,11.0,66,0.00,,,0.00,,2013-04-24 07:52:00,
2013-04-24 03:01:00,40.0,30.0,30.11,NNE,31,2.0,11.0,66,0.00,,,0.00,,2013-04-24 08:01:00,
2013-04-24 03:12:00,40.0,30.0,30.11,NNE,31,2.0,11.0,66,0.00,,,0.00,,2013-04-24 08:12:00,
2013-04-24 03:21:00,37.0,27.0,30.11,NE,38,1.0,7.0,67,0.00,,,0.00,,2013-04-24 08:21:00,
2013-04-24 03:33:00,37.0,27.0,30.11,NE,38,1.0,7.0,67,0.00,,,0.00,,2013-04-24 08:33:00,
2013-04-24 03:42:00,37.0,27.0,30.11,NE,38,1.0,7.0,67,0.00,,,0.00,,2013-04-24 08:42:00,
2013-04-24 03:52:00,34.0,25.0,30.12,SSW,193,0.0,2.0,69,0.00,,,0.00,,2013-04-24 08:52:00,
2013-04-24 04:01:00,34.0,25.0,30.12,SSW,193,0.0,2.0,69,0.00,,,0.00,,2013-04-24 09:01:00,
2013-04-24 04:11:00,34.0,25.0,30.12,SSW,193,0.0,2.0,69,0.00,,,0.00,,2013-04-24 09:11:00,
2013-04-24 04:21:00,32.0,24.0,30.14,WSW,251,1.0,4.0,73,0.00,,,0.00,,2013-04-24 09:21:00,
2013-04-24 04:33:00,32.0,24.0,30.14,WSW,251,1.0,4.0,73,0.00,,,0.00,,2013-04-24 09:33:00,
2013-04-24 04:42:00,32.0,24.0,30.14,WSW,251,1.0,4.0,73,0.00,,,0.00,,2013-04-24 09:42:00,
2013-04-24 04:53:00,32.0,24.0,30.14,WSW,251,1.0,4.0,73,0.00,,,0.00,,2013-04-24 09:53:00,
2013-04-24 09:22:00,35.0,26.0,30.15,ESE,112,3.0,6.0,69,0.00,,,0.00,,2013-04-24 14:22:00,
2013-04-24 09:32:00,35.0,26.0,30.15,ESE,112,3.0,6.0,69,0.00,,,0.00,,2013-04-24 14:32:00,
2013-04-24 09:42:00,35.0,26.0,30.15,ESE,112,3.0,6.0,69,0.00,,,0.00,,2013-04-24 14:42:00,
2013-04-24 09:52:00,36.0,26.0,30.16,East,100,3.0,8.0,66,0.00,,,0.00,,2013-04-24 14:52:00,
2013-04-24 10:01:00,36.0,26.0,30.16,East,100,3.0,8.0,66,0.00,,,0.00,,2013-04-24 15:01:00,
2013-04-24 10:11:00,36.0,26.0,30.16,East,100,3.0,8.0,66,0.00,,,0.00,,2013-04-24 15:11:00,
2013-04-24 10:21:00,37.0,26.0,30.17,East,88,3.0,6.0,64,0.00,,,0.00,,2013-04-24 15:21:00,
2013-04-24 10:33:00,37.0,26.0,30.17,East,88,3.0,6.0,64,0.00,,,0.00,,2013-04-24 15:33:00,
2013-04-24 10:43:00,37.0,26.0,30.17,East,88,3.0,6.0,64,0.00,,,0.00,,2013-04-24 15:43:00,
2013-04-24 10:53:00,38.0,26.0,30.18,ESE,104,3.0,8.0,62,0.00,,,0.00,,2013-04-24 15:53:00,
2013-04-24 11:03:00,38.0,26.0,30.18,ESE,104,3.0,8.0,62,0.00,,,0.00,,2013-04-24 16:03:00,
2013-04-24 11:12:00,38.0,26.0,30.18,ESE,104,3.0,8.0,62,0.00,,,0.00,,2013-04-24 16:12:00,
2013-04-24 11:23:00,38.0,26.0,30.17,SE,130,1.0,7.0,61,0.00,,,0.00,,2013-04-24 16:23:00,
2013-04-24 11:32:00,38.0,26.0,30.17,SE,130,1.0,7.0,61,0.00,,,0.00,,2013-04-24 16:32:00,
2013-04-24 11:42:00,40.0,26.0,30.18,ESE,110,3.0,8.0,58,0.00,,,0.00,,2013-04-24 16:42:00,
2013-04-24 11:52:00,40.0,26.0,30.18,ESE,110,3.0,8.0,58,0.00,,,0.00,,2013-04-24 16:52:00,
2013-04-24 12:02:00,40.0,26.0,30.18,ESE,110,3.0,8.0,58,0.00,,,0.00,,2013-04-24 17:02:00,
2013-04-24 12:12:00,40.0,26.0,30.18,ESE,110,3.0,8.0,58,0.00,,,0.00,,2013-04-24 17:12:00,
2013-04-24 12:22:00,41.0,27.0,30.19,ESE,103,5.0,8.0,56,0.00,,,0.00,,2013-04-24 17:22:00,
2013-04-24 12:32:00,41.0,27.0,30.19,ESE,103,5.0,8.0,56,0.00,,,0.00,,2013-04-24 17:32:00,
2013-04-24 12:42:00,41.0,27.0,30.19,ESE,103,5.0,8.0,56,0.00,,,0.00,,2013-04-24 17:42:00,
2013-04-24 12:52:00,43.0,27.0,30.19,East,89,3.0,7.0,53,0.00,,,0.00,,2013-04-24 17:52:00,
2013-04-24 13:02:00,43.0,27.0,30.19,East,89,3.0,7.0,53,0.00,,,0.00,,2013-04-24 18:02:00,
2013-04-24 13:12:00,43.0,27.0,30.19,East,89,3.0,7.0,53,0.00,,,0.00,,2013-04-24 18:12:00,
2013-04-24 13:21:00,44.0,27.0,30.16,East,86,3.0,8.0,51,0.00,,,0.00,,2013-04-24 18:21:00,
2013-04-24 13:33:00,44.0,27.0,30.16,East,86,3.0,8.0,51,0.00,,,0.00,,2013-04-24 18:33:00,
2013-04-24 13:43:00,44.0,27.0,30.16,East,86,3.0,8.0,51,0.00,,,0.00,,2013-04-24 18:43:00,
2013-04-24 13:52:00,46.0,27.0,30.16,ESE,114,2.0,8.0,47,0.00,,,0.00,,2013-04-24 18:52:00,
2013-04-24 14:02:00,46.0,27.0,30.16,ESE,114,2.0,8.0,47,0.00,,,0.00,,2013-04-24 19:02:00,
2013-04-24 14:11:00,46.0,27.0,30.16,ESE,114,2.0,8.0,47,0.00,,,0.00,,2013-04-24 19:11:00,
2013-04-24 14:21:00,49.0,29.0,30.13,SSE,157,1.0,6.0,45,0.00,,,0.00,,2013-04-24 19:21:00,
2013-04-24 14:31:00,49.0,29.0,30.13,SSE,157,1.0,6.0,45,0.00,,,0.00,,2013-04-24 19:31:00,
2013-04-24 14:42:00,49.0,29.0,30.13,SSE,157,1.0,6.0,45,0.00,,,0.00,,2013-04-24 19:42:00,
2013-04-24 14:52:00,52.0,30.0,30.12,North,359,1.0,7.0,42,0.00,,,0.00,,2013-04-24 19:52:00,
2013-04-24 15:01:00,52.0,30.0,30.12,North,359,1.0,7.0,42,0.00,,,0.00,,2013-04-24 20:01:00,
2013-04-24 15:11:00,52.0,30.0,30.12,North,359,1.0,7.0,42,0.00,,,0.00,,2013-04-24 20:11:00,
2013-04-24 15:22:00,56.0,29.0,30.10,East,96,4.0,7.0,36,0.00,,,0.00,,2013-04-24 20:22:00,
2013-04-24 15:32:00,56.0,29.0,30.10,East,96,4.0,7.0,36,0.00,,,0.00,,2013-04-24 20:32:00,
2013-04-24 15:42:00,56.0,29.0,30.10,East,96,4.0,7.0,36,0.00,,,0.00,,2013-04-24 20:42:00,
2013-04-24 15:52:00,60.0,32.0,30.10,ENE,68,0.0,8.0,34,0.00,,,0.00,,2013-04-24 20:52:00,
2013-04-24 16:02:00,60.0,32.0,30.10,ENE,68,0.0,8.0,34,0.00,,,0.00,,2013-04-24 21:02:00,
2013-04-24 16:11:00,60.0,32.0,30.10,ENE,68,0.0,8.0,34,0.00,,,0.00,,2013-04-24 21:11:00,
2013-04-24 16:21:00,61.0,32.0,30.07,East,83,2.0,8.0,33,0.00,,,0.00,,2013-04-24 21:21:00,
2013-04-24 16:33:00,61.0,32.0,30.07,East,83,2.0,8.0,33,0.00,,,0.00,,2013-04-24 21:33:00,
2013-04-24 16:42:00,61.0,32.0,30.07,East,83,2.0,8.0,33,0.00,,,0.00,,2013-04-24 21:42:00,
2013-04-24 16:52:00,63.0,32.0,30.07,ESE,113,0.0,6.0,31,0.00,,,0.00,,2013-04-24 21:52:00,
2013-04-24 17:03:00,63.0,32.0,30.07,ESE,113,0.0,6.0,31,0.00,,,0.00,,2013-04-24 22:03:00,
2013-04-24 17:12:00,63.0,32.0,30.07,ESE,113,0.0,6.0,31,0.00,,,0.00,,2013-04-24 22:12:00,
2013-04-24 17:22:00,65.0,32.0,30.05,SSE,164,0.0,7.0,29,0.00,,,0.00,,2013-04-24 22:22:00,
2013-04-24 17:33:00,65.0,32.0,30.05,SSE,164,0.0,7.0,29,0.00,,,0.00,,2013-04-24 22:33:00,
2013-04-24 17:42:00,65.0,32.0,30.05,SSE,164,0.0,7.0,29,0.00,,,0.00,,2013-04-24 22:42:00,
2013-04-24 17:52:00,65.0,33.0,30.04,East,85,0.0,7.0,30,0.00,,,0.00,,2013-04-24 22:52:00,
2013-04-24 18:02:00,65.0,33.0,30.04,East,85,0.0,7.0,30,0.00,,,0.00,,2013-04-24 23:02:00,
2013-04-24 18:12:00,65.0,33.0,30.04,East,85,0.0,7.0,30,0.00,,,0.00,,2013-04-24 23:12:00,
2013-04-24 18:21:00,65.0,33.0,30.04,ESE,110,1.0,7.0,30,0.00,,,0.00,,2013-04-24 23:21:00,
2013-04-24 18:32:00,65.0,33.0,30.04,ESE,110,1.0,7.0,30,0.00,,,0.00,,2013-04-24 23:32:00,
2013-04-24 18:42:00,65.0,33.0,30.04,ESE,110,1.0,7.0,30,0.00,,,0.00,,2013-04-24 23:42:00,
2013-04-24 18:52:00,65.0,33.0,30.03,SE,130,1.0,8.0,30,0.00,,,0.00,,2013-04-24 23:52:00,
2013-04-24 19:01:00,65.0,33.0,30.03,SE,130,1.0,8.0,30,0.00,,,0.00,,2013-04-25 00:01:00,
2013-04-24 19:12:00,65.0,33.0,30.03,SE,130,1.0,8.0,30,0.00,,,0.00,,2013-04-25 00:12:00,
2013-04-24 19:22:00,65.0,34.0,30.04,ESE,102,0.0,7.0,31,0.00,,,0.00,,2013-04-25 00:22:00,
2013-04-24 19:32:00,65.0,34.0,30.04,ESE,102,0.0,7.0,31,0.00,,,0.00,,2013-04-25 00:32:00,
2013-04-24 19:42:00,65.0,34.0,30.04,ESE,102,0.0,7.0,31,0.00,,,0.00,,2013-04-25 00:42:00,
2013-04-24 19:52:00,63.0,33.0,30.05,SE,126,0.0,8.0,32,0.00,,,0.00,,2013-04-25 00:52:00,
2013-04-24 20:01:00,63.0,33.0,30.05,SE,126,0.0,8.0,32,0.00,,,0.00,,2013-04-25 01:01:00,
2013-04-24 20:11:00,63.0,33.0,30.05,SE,126,0.0,8.0,32,0.00,,,0.00,,2013-04-25 01:11:00,
2013-04-24 20:23:00,61.0,33.0,30.03,East,96,0.0,8.0,35,0.00,,,0.00,,2013-04-25 01:23:00,
2013-04-24 20:32:00,61.0,33.0,30.03,East,96,0.0,8.0,35,0.00,,,0.00,,2013-04-25 01:32:00,
2013-04-24 20:42:00,61.0,33.0,30.03,East,96,0.0,8.0,35,0.00,,,0.00,,2013-04-25 01:42:00,
2013-04-24 20:52:00,59.0,31.0,30.06,ESE,112,2.0,6.0,35,0.00,,,0.00,,2013-04-25 01:52:00,
2013-04-24 21:01:00,56.0,29.0,30.07,East,83,0.0,0.0,36,0.00,,,0.00,,2013-04-25 02:01:00,
2013-04-24 21:02:00,59.0,31.0,30.06,ESE,112,2.0,6.0,35,0.00,,,0.00,,2013-04-25 02:02:00,
2013-04-24 21:11:00,59.0,31.0,30.06,ESE,112,2.0,6.0,35,0.00,,,0.00,,2013-04-25 02:11:00,
2013-04-24 21:22:00,56.0,29.0,30.07,East,83,0.0,0.0,36,0.00,,,0.00,,2013-04-25 02:22:00,
2013-04-24 21:32:00,56.0,29.0,30.07,East,83,0.0,0.0,36,0.00,,,0.00,,2013-04-25 02:32:00,
2013-04-24 21:42:00,56.0,29.0,30.07,East,83,0.0,0.0,36,0.00,,,0.00,,2013-04-25 02:42:00,
2013-04-24 21:51:00,56.0,29.0,30.07,East,83,0.0,0.0,36,0.00,,,0.00,,2013-04-25 02:51:00,
2013-04-24 22:52:00,53.0,30.0,30.10,East,80,0.0,0.0,41,0.00,,,0.00,,2013-04-25 03:52:00,
2013-04-24 23:03:00,53.0,30.0,30.10,East,80,0.0,0.0,41,0.00,,,0.00,,2013-04-25 04:03:00,
2013-04-24 23:12:00,53.0,30.0,30.10,East,80,0.0,0.0,41,0.00,,,0.00,,2013-04-25 04:12:00,
2013-04-24 23:23:00,52.0,30.0,30.11,ENE,69,0.0,0.0,42,0.00,,,0.00,,2013-04-25 04:23:00,
2013-04-24 23:32:00,52.0,30.0,30.11,ENE,69,0.0,0.0,42,0.00,,,0.00,,2013-04-25 04:32:00,
2013-04-24 23:43:00,52.0,30.0,30.11,ENE,69,0.0,0.0,42,0.00,,,0.00,,2013-04-25 04:43:00,
2013-04-24 23:52:00,50.0,28.0,30.12,ENE,69,0.0,0.0,43,0.00,,,0.00,,2013-04-25 04:52:00,